Weather History for Wink, TX

Change the Weather History Date:

Friday, March 29, 2013

  Actual Average Record
Temperature  
Mean Temperature 70 °F -  
Max Temperature 86 °F 74 °F 96 °F (1963)
Min Temperature 53 °F 43 °F 29 °F (1984)
Cooling Degree Days 4    
Growing Degree Days 20 (Base 50)    
Moisture  
Dew Point 48 °F    
Average Humidity 58    
Maximum Humidity 93    
Minimum Humidity 12    
Precipitation  
Precipitation 0.00 in - - ()
Sea Level Pressure  
Sea Level Pressure 29.92 in    
Wind  
Wind Speed 11 mph (SE)    
Max Wind Speed 18 mph    
Max Gust Speed 24 mph    
Visibility 10 miles    
Events      
Averages and records for this station are not official NWS values.
T = Trace of Precipitation, MM = Missing Value Source: NWS Daily Summary

Daily Weather History Graph

Daily Weather History Graph

Search for Another Location

Airport:

Trip Planner

Search our weather history database for the weather conditions in past years. The results will help you decide how hot, cold, wet, or windy it might be!

Date:

Astronomy

Mar. 29, 2013 Rise Set
Actual Time 7:44 AM CDT 8:10 PM CDT
Civil Twilight 7:20 AM CDT 8:35 PM CDT
Nautical Twilight 6:51 AM CDT 9:03 PM CDT
Astronomical Twilight 6:22 AM CDT 9:32 PM CDT
Moon 11:00 PM CDT (3/29) 9:06 AM CDT (3/29)
Length of Visible Light 13h 14m
Length of Day
12h 25m
Waning Gibbous, 93% of the Moon is Illuminated
Mar 29
Waning Gibbous
Apr 2
Last Quarter
Apr 10
New
Apr 18
First Quarter
Apr 25
Full

Hourly Weather History & Observations

Time (CDT) Temp. Dew Point Humidity Pressure Visibility Wind Dir Wind Speed Gust Speed Precip Events Conditions
12:53 AM 61.0 °F 53.1 °F 75% 29.96 in 10.0 mi SSE 18.4 mph - N/A   Clear
1:53 AM 59.0 °F 52.0 °F 78% 29.94 in 10.0 mi SE 13.8 mph - N/A   Clear
2:53 AM 57.9 °F 52.0 °F 81% 29.94 in 10.0 mi SSE 12.7 mph - N/A   Clear
3:53 AM 57.0 °F 52.0 °F 83% 29.93 in 10.0 mi SE 10.4 mph - N/A   Clear
4:53 AM 55.9 °F 51.1 °F 84% 29.91 in 10.0 mi SE 10.4 mph - N/A   Clear
5:53 AM 54.0 °F 51.1 °F 90% 29.92 in 10.0 mi East 5.8 mph - N/A   Clear
6:53 AM 53.1 °F 51.1 °F 93% 29.93 in 10.0 mi ESE 8.1 mph - N/A   Clear
7:53 AM 54.0 °F 52.0 °F 93% 29.96 in 7.0 mi ESE 6.9 mph - N/A   Clear
8:53 AM 55.9 °F 53.1 °F 90% 29.99 in 7.0 mi SE 6.9 mph - N/A   Clear
9:53 AM 60.1 °F 54.0 °F 80% 29.99 in 9.0 mi SE 8.1 mph - N/A   Clear
10:53 AM 64.0 °F 53.1 °F 67% 29.99 in 10.0 mi SE 6.9 mph - N/A   Clear
11:53 AM 68.0 °F 51.1 °F 55% 29.98 in 10.0 mi SSE 4.6 mph - N/A   Clear
12:53 PM 73.0 °F 48.9 °F 42% 29.96 in 10.0 mi Calm Calm - N/A   Clear
1:53 PM 75.9 °F 46.0 °F 35% 29.94 in 10.0 mi South 3.5 mph - N/A   Clear
2:53 PM 81.0 °F 45.0 °F 28% 29.90 in 10.0 mi Variable 4.6 mph - N/A   Partly Cloudy
3:53 PM 82.9 °F 42.1 °F 24% 29.88 in 10.0 mi Variable 4.6 mph - N/A   Clear
4:53 PM 84.9 °F 33.1 °F 16% 29.86 in 10.0 mi ENE 4.6 mph - N/A   Clear
5:53 PM 84.9 °F 34.0 °F 16% 29.84 in 10.0 mi SE 9.2 mph - N/A   Partly Cloudy
6:53 PM 86.0 °F 27.0 °F 12% 29.83 in 10.0 mi SSW 6.9 mph - N/A   Clear
7:53 PM 78.1 °F 46.9 °F 33% 29.85 in 10.0 mi SE 16.1 mph 24.2 mph N/A   Clear
8:53 PM 73.9 °F 48.0 °F 40% 29.88 in 10.0 mi SE 13.8 mph - N/A   Clear
9:53 PM 70.0 °F 50.0 °F 49% 29.91 in 10.0 mi East 12.7 mph - N/A   Clear
10:53 PM 66.9 °F 52.0 °F 59% 29.93 in 10.0 mi ESE 12.7 mph - N/A   Clear
11:53 PM 64.0 °F 53.1 °F 67% 29.94 in 10.0 mi ESE 12.7 mph - N/A   Clear